CW5404 Weather Reports


time (UTC)temp
F
wind
direction
speed
knots
gust
knots
rain 1hr
in
rain 24hr
in
rain mn
in
humidity
%
barometer
mb
20260901014448 77 169 0.0 2.6 0.00 0.00 0.00 47 1006.9
20260901013949 78 160 0.9 0.9 0.00 0.00 0.00 46 1006.8
20260901013449 79 99 0.0 0.9 0.00 0.00 0.00 45 1006.8
20260901012948 79 90 0.0 3.5 0.00 0.00 0.00 44 1006.8
20260901012448 80 42 0.9 3.5 0.00 0.00 0.00 44 1006.8
20260901011948 80 58 0.9 1.7 0.00 0.00 0.00 42 1006.8
20260901011449 81 59 0.0 3.5 0.00 0.00 0.00 42 1006.8
20260901010948 81 61 0.9 3.5 0.00 0.00 0.00 40 1006.8
20260901010448 82 59 0.0 1.7 0.00 0.00 0.00 39 1006.8
20260901005948 82 15 0.0 1.7 0.00 0.00 0.00 38 1006.8
20260901004948 83 209 1.7 6.1 0.00 0.00 0.00 38 1006.8
20260901003948 85 177 3.5 4.3 0.00 0.00 0.00 36 1006.8
20260901003448 85 159 2.6 2.6 0.00 0.00 0.00 37 1006.8
20260901002948 85 186 1.7 2.6 0.00 0.00 0.00 37 1006.8
20260901002448 85 216 0.0 3.5 0.00 0.00 0.00 36 1006.7
20260901001948 85 216 0.0 3.5 0.00 0.00 0.00 35 1006.7
20260901001448 86 207 0.9 2.6 0.00 0.00 0.00 35 1006.7
20260901000948 86 200 1.7 3.5 0.00 0.00 0.00 36 1006.6
20260831235948 86 111 3.5 5.2 0.00 0.00 0.00 32 1006.6
20260831235448 86 153 2.6 2.6 0.00 0.00 0.00 32 1006.6
20260831234948 85 68 0.9 3.5 0.00 0.00 0.00 34 1006.6
20260831234448 85 29 1.7 4.3 0.00 0.00 0.00 34 1006.6
20260831233948 85 20 3.5 4.3 0.00 0.00 0.00 32 1006.6
20260831232448 85 211 0.0 6.1 0.00 0.00 0.00 32 1006.8
20260831231948 85 209 1.7 6.1 0.00 0.00 0.00 31 1006.8
20260831231448 85 82 0.0 6.1 0.00 0.00 0.00 31 1006.8
20260831230948 85 167 1.7 6.1 0.00 0.00 0.00 31 1006.9
20260831230448 86 220 4.3 4.3 0.00 0.00 0.00 30 1006.9
20260831225948 85 121 1.7 4.3 0.00 0.00 0.00 30 1006.9
20260831225448 85 193 0.0 5.2 0.00 0.00 0.00 30 1007.0
20260831224947 85 175 1.7 5.2 0.00 0.00 0.00 30 1007.0
20260831224447 85 189 2.6 5.2 0.00 0.00 0.00 30 1007.0
20260831223448 84 199 1.7 5.2 0.00 0.00 0.00 31 1007.1
20260831222447 84 138 1.7 4.3 0.00 0.00 0.00 31 1007.2
20260831221947 84 137 3.5 5.2 0.00 0.00 0.00 31 1007.2
20260831221447 84 99 0.9 5.2 0.00 0.00 0.00 32 1007.2
20260831220947 84 74 2.6 4.3 0.00 0.00 0.00 31 1007.5
20260831220447 84 152 3.5 4.3 0.00 0.00 0.00 32 1007.5
20260831215948 84 113 2.6 4.3 0.00 0.00 0.00 31 1007.5
20260831215447 83 214 1.7 4.3 0.00 0.00 0.00 32 1007.7
20260831214447 82 106 0.9 5.2 0.00 0.00 0.00 33 1007.7
20260831213947 82 53 2.6 5.2 0.00 0.00 0.00 33 1008.0
20260831213447 83 30 0.9 2.6 0.00 0.00 0.00 33 1008.0
20260831212947 82 55 0.0 4.3 0.00 0.00 0.00 34 1008.0
20260831212447 81 57 1.7 5.2 0.00 0.00 0.00 34 1007.9
20260831211947 81 89 0.9 5.2 0.00 0.00 0.00 34 1007.9
20260831211447 81 136 3.5 4.3 0.00 0.00 0.00 34 1007.9
20260831210947 81 105 0.9 4.3 0.00 0.00 0.00 34 1008.0
20260831210447 81 167 0.9 3.5 0.00 0.00 0.00 35 1008.0
20260831205947 81 105 0.0 3.5 0.00 0.00 0.00 35 1008.0
20260831205447 81 78 3.5 3.5 0.00 0.00 0.00 35 1008.4
20260831204947 80 207 0.9 3.5 0.00 0.00 0.00 36 1008.4
20260831204447 81 190 1.7 3.5 0.00 0.00 0.00 35 1008.4
20260831203947 81 20 1.7 4.3 0.00 0.00 0.00 36 1008.5
20260831202947 81 5 1.7 2.6 0.00 0.00 0.00 35 1008.5
20260831202447 80 334 0.9 1.7 0.00 0.00 0.00 36 1008.6
20260831201946 80 216 0.9 3.5 0.00 0.00 0.00 36 1008.6
20260831201446 79 140 0.9 4.3 0.00 0.00 0.00 39 1008.5
20260831194947 78 157 1.7 4.3 0.00 0.00 0.00 42 1009.0
20260831194446 77 92 0.9 6.1 0.00 0.00 0.00 41 1009.0
20260831193947 77 53 2.6 6.1 0.00 0.00 0.00 43 1009.2
20260831193446 77 107 2.6 5.2 0.00 0.00 0.00 42 1009.2
20260831192947 77 229 3.5 5.2 0.00 0.00 0.00 43 1009.2
20260831192446 77 119 0.9 4.3 0.00 0.00 0.00 43 1009.5
20260831191946 77 30 4.3 4.3 0.00 0.00 0.00 43 1009.5
20260831191447 77 144 0.9 3.5 0.00 0.00 0.00 44 1009.5
20260831190947 76 45 0.9 4.3 0.00 0.00 0.00 45 1009.7
20260831190446 75 137 0.9 4.3 0.00 0.00 0.00 45 1009.7
20260831185946 75 57 1.7 5.2 0.00 0.00 0.00 46 1009.7
20260831185447 75 115 3.5 5.2 0.00 0.00 0.00 46 1009.7
20260831184947 75 103 2.6 4.3 0.00 0.00 0.00 47 1009.7
20260831184447 74 178 0.9 4.3 0.00 0.00 0.00 47 1009.7
20260831183446 73 86 1.7 5.2 0.00 0.00 0.00 49 1010.0
20260831182946 73 58 2.6 4.3 0.00 0.00 0.00 48 1010.0
20260831182446 73 127 0.9 3.5 0.00 0.00 0.00 49 1010.1
20260831181946 73 231 1.7 3.5 0.00 0.00 0.00 49 1010.1
20260831181446 72 70 3.5 6.1 0.00 0.00 0.00 51 1010.1
20260831180946 72 355 0.9 6.1 0.00 0.00 0.00 51 1010.3
20260831180446 73 36 0.9 4.3 0.00 0.00 0.00 50 1010.3
20260831175946 72 59 0.9 3.5 0.00 0.00 0.00 50 1010.3
20260831175446 72 154 0.0 4.3 0.00 0.00 0.00 52 1010.4
20260831174946 71 55 0.9 4.3 0.00 0.00 0.00 54 1010.4
20260831174447 71 63 0.9 4.3 0.00 0.00 0.00 53 1010.4
20260831173946 70 143 1.7 2.6 0.00 0.00 0.00 55 1010.5
20260831173446 69 32 0.9 5.2 0.00 0.00 0.00 56 1010.5
20260831172946 69 44 1.7 7.0 0.00 0.00 0.00 56 1010.5
20260831171946 69 35 1.7 3.5 0.00 0.00 0.00 57 1010.6
20260831171447 69 338 0.9 3.5 0.00 0.00 0.00 57 1010.6
20260831170946 69 5 1.7 4.3 0.00 0.00 0.00 58 1010.9
20260831170446 68 53 1.7 4.3 0.00 0.00 0.00 59 1010.9
20260831165946 68 90 0.9 3.5 0.00 0.00 0.00 60 1010.9
20260831165446 67 116 1.7 4.3 0.00 0.00 0.00 61 1010.9
20260831164946 67 57 2.6 5.2 0.00 0.00 0.00 61 1010.9
20260831164446 67 24 0.9 5.2 0.00 0.00 0.00 61 1010.9
20260831163946 67 56 2.6 4.3 0.00 0.00 0.00 60 1011.1
20260831162946 67 56 1.7 4.3 0.00 0.00 0.00 61 1011.1
20260831162446 67 57 1.7 4.3 0.00 0.00 0.00 61 1011.1
20260831161946 67 83 4.3 4.3 0.00 0.00 0.00 62 1011.1
20260831161446 67 73 0.0 3.5 0.00 0.00 0.00 62 1011.1
20260831160946 66 49 0.9 2.6 0.00 0.00 0.00 63 1011.3
20260831155446 66 114 0.0 0.0 0.00 0.00 0.00 64 1011.3
20260831154946 65 107 0.0 0.0 0.00 0.00 0.00 65 1011.3
20260831154446 65 55 0.0 0.0 0.00 0.00 0.00 66 1011.3
20260831153946 64 61 0.0 0.0 0.00 0.00 0.00 67 1011.3
20260831153446 63 341 0.0 0.0 0.00 0.00 0.00 70 1011.3
20260831152946 62 340 0.0 0.0 0.00 0.00 0.00 74 1011.3
20260831152446 60 340 0.0 0.0 0.00 0.00 0.00 77 1011.4
20260831151946 59 340 0.0 0.0 0.00 0.00 0.00 79 1011.3
20260831151446 58 340 0.0 0.0 0.00 0.00 0.00 81 1011.3
20260831150946 58 340 0.0 0.0 0.00 0.00 0.00 84 1011.3
20260831145946 56 340 0.0 0.0 0.00 0.00 0.00 88 1011.3
20260831145446 55 360 0.0 0.0 0.00 0.00 0.00 89 1011.5
20260831144945 54 360 0.0 0.0 0.00 0.00 0.00 91 1011.5
20260831144445 54 360 0.0 0.0 0.00 0.00 0.00 92 1011.5
20260831143945 53 360 0.0 0.0 0.00 0.00 0.00 92 1011.3
20260831143445 53 360 0.0 0.0 0.00 0.00 0.00 92 1011.3
20260831142945 52 360 0.0 0.0 0.00 0.00 0.00 92 1011.3
20260831142445 52 360 0.0 0.0 0.00 0.00 0.00 92 1011.3
20260831141946 51 360 0.0 0.0 0.00 0.00 0.00 92 1011.3
20260831141446 51 340 0.0 0.0 0.00 0.00 0.00 92 1011.3
20260831140945 51 340 0.0 0.0 0.00 0.00 0.00 92 1011.3
20260831140445 50 340 0.0 0.0 0.00 0.00 0.00 91 1011.3
20260831135945 50 340 0.0 0.0 0.00 0.00 0.00 91 1011.3
20260831135445 50 340 0.0 0.0 0.00 0.00 0.00 91 1011.4
20260831134946 50 340 0.0 0.0 0.00 0.00 0.00 90 1011.4
20260831133945 51 340 0.0 0.0 0.00 0.00 0.00 90 1011.4
20260831133445 51 340 0.0 0.0 0.00 0.00 0.00 89 1011.4
20260831132946 51 340 0.0 0.0 0.00 0.00 0.00 89 1011.4
20260831132445 51 340 0.0 0.0 0.00 0.00 0.00 89 1011.5
20260831131945 51 340 0.0 0.0 0.00 0.00 0.00 89 1011.5
20260831131445 51 340 0.0 0.0 0.00 0.00 0.00 89 1011.5
20260831130945 51 340 0.0 0.0 0.00 0.00 0.00 89 1011.5
20260831130445 51 340 0.0 0.0 0.00 0.00 0.00 89 1011.5
20260831125945 51 340 0.0 0.0 0.00 0.00 0.00 88 1011.5
20260831125445 52 340 0.0 0.0 0.00 0.00 0.00 88 1011.6
20260831124945 52 340 0.0 0.0 0.00 0.00 0.00 88 1011.6
20260831124445 52 340 0.0 0.0 0.00 0.00 0.00 88 1011.6
20260831123945 52 340 0.0 0.0 0.00 0.00 0.00 88 1011.7
20260831121945 52 340 0.0 0.0 0.00 0.00 0.00 87 1011.6
20260831121445 52 340 0.0 0.0 0.00 0.00 0.00 86 1011.6
20260831120945 52 340 0.0 0.0 0.00 0.00 0.00 86 1011.8
20260831120444 52 340 0.0 0.0 0.00 0.00 0.00 86 1011.8
20260831115945 52 340 0.0 0.0 0.00 0.00 0.00 86 1011.8
20260831115444 53 340 0.0 0.0 0.00 0.00 0.00 86 1011.9
20260831114945 53 340 0.0 0.0 0.00 0.00 0.00 86 1011.9
20260831113945 53 340 0.0 0.0 0.00 0.00 0.00 86 1012.0
20260831113444 53 340 0.0 0.0 0.00 0.00 0.00 85 1012.0
20260831112945 53 340 0.0 0.0 0.00 0.00 0.00 85 1012.0
20260831112445 53 340 0.0 0.0 0.00 0.00 0.00 85 1012.1
20260831110944 53 340 0.0 0.0 0.00 0.00 0.00 83 1012.1
20260831110444 53 340 0.0 0.0 0.00 0.00 0.00 83 1012.1
20260831105944 53 340 0.0 0.0 0.00 0.00 0.00 83 1012.1
20260831104944 54 340 0.0 0.0 0.00 0.00 0.00 83 1012.0
20260831104444 54 340 0.0 0.0 0.00 0.00 0.00 82 1012.0
20260831104014 54 340 0.0 0.0 0.00 0.00 0.00 82 1012.1
20260831103444 54 340 0.0 0.0 0.00 0.00 0.00 82 1012.1
20260831102444 54 340 0.0 0.0 0.00 0.00 0.00 82 1012.1
20260831101943 54 340 0.0 0.0 0.00 0.00 0.00 82 1012.1
20260831101444 54 340 0.0 0.0 0.00 0.00 0.00 82 1012.1
20260831100944 54 340 0.0 0.0 0.00 0.00 0.00 81 1012.2
20260831100444 54 340 0.0 0.0 0.00 0.00 0.00 81 1012.2
20260831095014 55 340 0.0 0.0 0.00 0.00 0.00 81 1012.4
20260831094514 55 340 0.0 0.0 0.00 0.00 0.00 82 1012.4
20260831093943 55 340 0.0 0.0 0.00 0.00 0.00 82 1012.6
20260831092943 55 340 0.0 0.0 0.00 0.00 0.00 81 1012.6
20260831092514 55 340 0.0 0.0 0.00 0.00 0.00 80 1012.7
20260831091943 56 340 0.0 0.0 0.00 0.00 0.00 79 1012.7
20260831091514 56 340 0.0 0.0 0.00 0.00 0.00 80 1012.7
20260831090943 56 340 0.0 0.0 0.00 0.00 0.00 80 1012.9
20260831090443 56 340 0.0 0.0 0.00 0.00 0.00 79 1012.9
20260831085943 56 340 0.0 0.0 0.00 0.00 0.00 79 1012.9
20260831085443 56 340 0.0 0.0 0.00 0.00 0.00 79 1013.0
20260831084943 57 340 0.0 0.0 0.00 0.00 0.00 79 1013.0
20260831084443 57 340 0.0 0.0 0.00 0.00 0.00 79 1013.0
20260831083943 57 340 0.0 0.0 0.00 0.00 0.00 79 1013.1
20260831083443 57 340 0.0 0.0 0.00 0.00 0.00 79 1013.1
20260831082443 57 340 0.0 0.0 0.00 0.00 0.00 79 1013.2
20260831081943 57 340 0.0 0.0 0.00 0.00 0.00 79 1013.2
20260831081443 57 340 0.0 0.0 0.00 0.00 0.00 79 1013.2
20260831080943 57 340 0.0 0.0 0.00 0.00 0.00 78 1013.3
20260831080443 57 340 0.0 0.0 0.00 0.00 0.00 78 1013.3
20260831075943 58 340 0.0 0.0 0.00 0.00 0.00 78 1013.3
20260831075442 58 340 0.0 0.0 0.00 0.00 0.00 78 1013.4
20260831074943 58 340 0.0 0.0 0.00 0.00 0.00 77 1013.4
20260831074443 58 340 0.0 0.0 0.00 0.00 0.00 77 1013.4
20260831073942 58 340 0.0 0.0 0.00 0.00 0.00 76 1013.6
20260831073442 58 340 0.0 0.0 0.00 0.00 0.00 76 1013.6
20260831072942 59 340 0.0 0.0 0.00 0.00 0.00 76 1013.6
20260831072442 59 340 0.0 0.0 0.00 0.00 0.00 76 1013.6
20260831071443 59 340 0.0 0.0 0.00 0.00 0.00 75 1013.6
20260831071012 59 340 0.0 0.0 0.00 0.00 0.00 75 1013.7
20260831070012 59 340 0.0 0.0 0.00 0.00 0.00 75 1013.7
20260831065442 59 340 0.0 0.0 0.00 0.00 0.00 74 1013.8
20260831064942 60 340 0.0 0.0 0.00 0.00 0.00 73 1013.9
20260831064442 60 340 0.0 0.0 0.00 0.00 0.00 72 1013.9
20260831063943 60 340 0.0 0.0 0.00 0.00 0.00 72 1014.0
20260831063442 60 340 0.0 0.0 0.00 0.00 0.00 72 1014.0
20260831063012 60 340 0.0 0.0 0.00 0.00 0.00 72 1014.0
20260831062442 61 340 0.0 0.0 0.00 0.00 0.00 72 1014.1
20260831062012 61 340 0.0 0.0 0.00 0.00 0.00 72 1014.1
20260831060942 61 340 0.0 0.0 0.00 0.00 0.00 71 1014.2
20260831060012 62 340 0.0 0.0 0.00 0.00 0.00 70 1014.2
20260831055442 62 340 0.0 0.0 0.00 0.00 0.00 70 1014.3
20260831055012 62 340 0.0 0.0 0.00 0.00 0.00 70 1014.3
20260831053942 62 342 0.0 1.7 0.00 0.00 0.00 69 1014.4
20260831053442 62 342 0.0 1.7 0.00 0.00 0.00 69 1014.4
20260831052942 63 325 0.0 1.7 0.00 0.00 0.00 68 1014.4
20260831051512 63 92 0.0 0.0 0.00 0.00 0.00 67 1014.5
20260831050942 63 92 0.0 0.0 0.00 0.00 0.00 67 1014.7
20260831050511 63 92 0.0 0.9 0.00 0.00 0.00 66 1014.7
20260831045511 64 44 0.0 1.7 0.00 0.00 0.00 66 1014.7
20260831045011 64 327 0.0 1.7 0.00 0.00 0.00 66 1014.7
20260831044441 64 117 0.0 0.0 0.00 0.00 0.00 66 1014.7
20260831043442 64 136 0.0 0.0 0.00 0.00 0.00 65 1014.8
20260831043011 64 136 0.0 1.7 0.00 0.00 0.00 65 1014.8
20260831042511 65 136 0.0 1.7 0.00 0.00 0.00 65 1014.7
20260831041941 65 136 1.7 1.7 0.00 0.00 0.00 64 1014.7
20260831041511 65 235 0.0 0.9 0.00 0.00 0.00 63 1014.7
20260831041012 65 235 0.0 0.9 0.00 0.00 0.00 63 1014.7
20260831040441 66 219 0.0 0.0 0.00 0.00 0.00 62 1014.7
20260831035942 66 219 0.0 0.9 0.00 0.00 0.00 62 1014.7
20260831035441 66 219 0.0 0.9 0.00 0.00 0.00 61 1014.5
20260831034942 66 218 0.9 0.9 0.00 0.00 0.00 61 1014.5
20260831034442 67 30 0.0 0.0 0.00 0.00 0.00 60 1014.6
20260831034011 67 30 0.0 0.0 0.00 0.00 0.00 59 1014.5
20260831033011 68 30 0.0 0.0 0.00 0.00 0.00 58 1014.5
20260831032441 68 31 0.0 1.7 0.00 0.00 0.00 57 1014.5
20260831031941 69 24 0.0 2.6 0.00 0.00 0.00 56 1014.5
20260831031511 69 21 0.0 2.6 0.00 0.00 0.00 55 1014.5
20260831030011 70 35 0.9 5.2 0.00 0.00 0.00 53 1014.4
20260831025510 70 55 0.9 4.3 0.00 0.00 0.00 52 1014.3
20260831024940 71 104 1.7 4.3 0.00 0.00 0.00 52 1014.3
20260831024441 71 32 4.3 4.3 0.00 0.00 0.00 51 1014.3
20260831024010 72 25 3.5 3.5 0.00 0.00 0.00 51 1014.2
20260831023510 72 30 1.7 2.6 0.00 0.00 0.00 50 1014.2
20260831022941 72 60 0.0 4.3 0.00 0.00 0.00 49 1014.2
20260831022510 72 44 2.6 6.1 0.00 0.00 0.00 49 1014.3
20260831022010 72 61 0.9 6.1 0.00 0.00 0.00 49 1014.3
20260831021510 73 46 3.5 5.2 0.00 0.00 0.00 48 1014.3
20260831021011 73 24 0.9 4.3 0.00 0.00 0.00 48 1014.5
20260831020510 73 46 0.9 5.2 0.00 0.00 0.00 47 1014.5
20260831015440 73 95 1.7 5.2 0.00 0.00 0.00 47 1014.5
20260831015010 73 38 0.9 5.2 0.00 0.00 0.00 47 1014.5